Year,Month,Day,Hour,Minute,Value (Times are PST for insolation in W/m^2)
2007,09,30,00,00,0.00
2007,09,30,00,01,0.00
2007,09,30,00,02,0.00
2007,09,30,00,03,0.00
2007,09,30,00,04,0.00
2007,09,30,00,05,0.00
2007,09,30,00,06,0.00
2007,09,30,00,07,0.00
2007,09,30,00,08,0.00
2007,09,30,00,09,0.00
2007,09,30,00,10,0.00
2007,09,30,00,11,0.00
2007,09,30,00,12,0.00
2007,09,30,00,13,0.00
2007,09,30,00,14,0.00
2007,09,30,00,15,0.00
2007,09,30,00,16,0.00
2007,09,30,00,17,0.00
2007,09,30,00,18,0.00
2007,09,30,00,19,0.00
2007,09,30,00,20,0.00
2007,09,30,00,21,0.00
2007,09,30,00,22,0.00
2007,09,30,00,23,0.00
2007,09,30,00,24,0.00
2007,09,30,00,25,0.00
2007,09,30,00,26,0.00
2007,09,30,00,27,0.00
2007,09,30,00,28,0.00
2007,09,30,00,29,0.00
2007,09,30,00,30,0.00
2007,09,30,00,31,0.00
2007,09,30,00,32,0.00
2007,09,30,00,33,0.00
2007,09,30,00,34,0.00
2007,09,30,00,35,0.00
2007,09,30,00,36,0.00
2007,09,30,00,37,0.00
2007,09,30,00,38,0.00
2007,09,30,00,39,0.00
2007,09,30,00,40,0.00
2007,09,30,00,41,0.00
2007,09,30,00,42,0.00
2007,09,30,00,43,0.00
2007,09,30,00,44,0.00
2007,09,30,00,45,0.00
2007,09,30,00,46,0.00
2007,09,30,00,47,0.00
2007,09,30,00,48,0.00
2007,09,30,00,49,0.00
2007,09,30,00,50,0.00
2007,09,30,00,51,0.00
2007,09,30,00,52,0.00
2007,09,30,00,53,0.00
2007,09,30,00,54,0.00
2007,09,30,00,55,0.00
2007,09,30,00,56,0.00
2007,09,30,00,57,0.00
2007,09,30,00,58,0.00
2007,09,30,00,59,0.00
2007,09,30,01,00,0.00
2007,09,30,01,01,0.00
2007,09,30,01,02,0.00
2007,09,30,01,03,0.00
2007,09,30,01,04,0.00
2007,09,30,01,05,0.00
2007,09,30,01,06,0.00
2007,09,30,01,07,0.00
2007,09,30,01,08,0.00
2007,09,30,01,09,0.00
2007,09,30,01,10,0.00
2007,09,30,01,11,0.00
2007,09,30,01,12,0.00
2007,09,30,01,13,0.00
2007,09,30,01,14,0.00
2007,09,30,01,15,0.00
2007,09,30,01,16,0.00
2007,09,30,01,17,0.00
2007,09,30,01,18,0.00
2007,09,30,01,19,0.00
2007,09,30,01,20,0.00
2007,09,30,01,21,0.00
2007,09,30,01,22,0.00
2007,09,30,01,23,0.00
2007,09,30,01,24,0.00
2007,09,30,01,25,0.00
2007,09,30,01,26,0.00
2007,09,30,01,27,0.00
2007,09,30,01,28,0.00
2007,09,30,01,29,0.00
2007,09,30,01,30,0.00
2007,09,30,01,31,0.00
2007,09,30,01,32,0.00
2007,09,30,01,33,0.00
2007,09,30,01,34,0.00
2007,09,30,01,35,0.00
2007,09,30,01,36,0.00
2007,09,30,01,37,0.00
2007,09,30,01,38,0.00
2007,09,30,01,39,0.00
2007,09,30,01,40,0.00
2007,09,30,01,41,0.00
2007,09,30,01,42,0.00
2007,09,30,01,43,0.00
2007,09,30,01,44,0.00
2007,09,30,01,45,0.00
2007,09,30,01,46,0.00
2007,09,30,01,47,0.00
2007,09,30,01,48,0.00
2007,09,30,01,49,0.00
2007,09,30,01,50,0.00
2007,09,30,01,51,0.00
2007,09,30,01,52,0.00
2007,09,30,01,53,0.00
2007,09,30,01,54,0.00
2007,09,30,01,55,0.00
2007,09,30,01,56,0.00
2007,09,30,01,57,0.00
2007,09,30,01,58,0.00
2007,09,30,01,59,0.00
2007,09,30,02,00,0.00
2007,09,30,02,01,0.00
2007,09,30,02,02,0.00
2007,09,30,02,03,0.00
2007,09,30,02,04,0.00
2007,09,30,02,05,0.00
2007,09,30,02,06,0.00
2007,09,30,02,07,0.00
2007,09,30,02,08,0.00
2007,09,30,02,09,0.00
2007,09,30,02,10,0.00
2007,09,30,02,11,0.00
2007,09,30,02,12,0.00
2007,09,30,02,13,0.00
2007,09,30,02,14,0.00
2007,09,30,02,15,0.00
2007,09,30,02,16,0.00
2007,09,30,02,17,0.00
2007,09,30,02,18,0.00
2007,09,30,02,19,0.00
2007,09,30,02,20,0.00
2007,09,30,02,21,0.00
2007,09,30,02,22,0.00
2007,09,30,02,23,0.00
2007,09,30,02,24,0.00
2007,09,30,02,25,0.00
2007,09,30,02,26,0.00
2007,09,30,02,27,0.00
2007,09,30,02,28,0.00
2007,09,30,02,29,0.00
2007,09,30,02,30,0.00
2007,09,30,02,31,0.00
2007,09,30,02,32,0.00
2007,09,30,02,33,0.00
2007,09,30,02,34,0.00
2007,09,30,02,35,0.00
2007,09,30,02,36,0.00
2007,09,30,02,37,0.00
2007,09,30,02,38,0.00
2007,09,30,02,39,0.00
2007,09,30,02,40,0.00
2007,09,30,02,41,0.00
2007,09,30,02,42,0.00
2007,09,30,02,43,0.00
2007,09,30,02,44,0.00
2007,09,30,02,45,0.00
2007,09,30,02,46,0.00
2007,09,30,02,47,0.00
2007,09,30,02,48,0.00
2007,09,30,02,49,0.00
2007,09,30,02,50,0.00
2007,09,30,02,51,0.00
2007,09,30,02,52,0.00
2007,09,30,02,53,0.00
2007,09,30,02,54,0.00
2007,09,30,02,55,0.00
2007,09,30,02,56,0.00
2007,09,30,02,57,0.00
2007,09,30,02,58,0.00
2007,09,30,02,59,0.00
2007,09,30,03,00,0.00
2007,09,30,03,01,0.00
2007,09,30,03,02,0.00
2007,09,30,03,03,0.00
2007,09,30,03,04,0.00
2007,09,30,03,05,0.00
2007,09,30,03,06,0.00
2007,09,30,03,07,0.00
2007,09,30,03,08,0.00
2007,09,30,03,09,0.00
2007,09,30,03,10,0.00
2007,09,30,03,11,0.00
2007,09,30,03,12,0.00
2007,09,30,03,13,0.00
2007,09,30,03,14,0.00
2007,09,30,03,15,0.00
2007,09,30,03,16,0.00
2007,09,30,03,17,0.00
2007,09,30,03,18,0.00
2007,09,30,03,19,0.00
2007,09,30,03,20,0.00
2007,09,30,03,21,0.00
2007,09,30,03,22,0.00
2007,09,30,03,23,0.00
2007,09,30,03,24,0.00
2007,09,30,03,25,0.00
2007,09,30,03,26,0.00
2007,09,30,03,27,0.00
2007,09,30,03,28,0.00
2007,09,30,03,29,0.00
2007,09,30,03,30,0.00
2007,09,30,03,31,0.00
2007,09,30,03,32,0.00
2007,09,30,03,33,0.00
2007,09,30,03,34,0.00
2007,09,30,03,35,0.00
2007,09,30,03,36,0.00
2007,09,30,03,37,0.00
2007,09,30,03,38,0.00
2007,09,30,03,39,0.00
2007,09,30,03,40,0.00
2007,09,30,03,41,0.00
2007,09,30,03,42,0.00
2007,09,30,03,43,0.00
2007,09,30,03,44,0.00
2007,09,30,03,45,0.00
2007,09,30,03,46,0.00
2007,09,30,03,47,0.00
2007,09,30,03,48,0.00
2007,09,30,03,49,0.00
2007,09,30,03,50,0.00
2007,09,30,03,51,0.00
2007,09,30,03,52,0.00
2007,09,30,03,53,0.00
2007,09,30,03,54,0.00
2007,09,30,03,55,0.00
2007,09,30,03,56,0.00
2007,09,30,03,57,0.00
2007,09,30,03,58,0.00
2007,09,30,03,59,0.00
2007,09,30,04,00,0.00
2007,09,30,04,01,0.00
2007,09,30,04,02,0.00
2007,09,30,04,03,0.00
2007,09,30,04,04,0.00
2007,09,30,04,05,0.00
2007,09,30,04,06,0.00
2007,09,30,04,07,0.00
2007,09,30,04,08,0.00
2007,09,30,04,09,0.00
2007,09,30,04,10,0.00
2007,09,30,04,11,0.00
2007,09,30,04,12,0.00
2007,09,30,04,13,0.00
2007,09,30,04,14,0.00
2007,09,30,04,15,0.00
2007,09,30,04,16,0.00
2007,09,30,04,17,0.00
2007,09,30,04,18,0.00
2007,09,30,04,19,0.00
2007,09,30,04,20,0.00
2007,09,30,04,21,0.00
2007,09,30,04,22,0.00
2007,09,30,04,23,0.00
2007,09,30,04,24,0.00
2007,09,30,04,25,0.00
2007,09,30,04,26,0.00
2007,09,30,04,27,0.00
2007,09,30,04,28,0.00
2007,09,30,04,29,0.00
2007,09,30,04,30,0.00
2007,09,30,04,31,0.00
2007,09,30,04,32,0.00
2007,09,30,04,33,0.00
2007,09,30,04,34,0.00
2007,09,30,04,35,0.00
2007,09,30,04,36,0.00
2007,09,30,04,37,0.00
2007,09,30,04,38,0.00
2007,09,30,04,39,0.00
2007,09,30,04,40,0.00
2007,09,30,04,41,0.00
2007,09,30,04,42,0.00
2007,09,30,04,43,0.00
2007,09,30,04,44,0.00
2007,09,30,04,45,0.00
2007,09,30,04,46,0.00
2007,09,30,04,47,0.00
2007,09,30,04,48,0.00
2007,09,30,04,49,0.00
2007,09,30,04,50,0.00
2007,09,30,04,51,0.00
2007,09,30,04,52,0.00
2007,09,30,04,53,0.00
2007,09,30,04,54,0.00
2007,09,30,04,55,0.00
2007,09,30,04,56,0.00
2007,09,30,04,57,0.00
2007,09,30,04,58,0.00
2007,09,30,04,59,0.00
2007,09,30,05,00,0.00
2007,09,30,05,01,0.00
2007,09,30,05,02,0.00
2007,09,30,05,03,0.00
2007,09,30,05,04,0.00
2007,09,30,05,05,0.00
2007,09,30,05,06,0.00
2007,09,30,05,07,0.00
2007,09,30,05,08,0.00
2007,09,30,05,09,0.00
2007,09,30,05,10,0.00
2007,09,30,05,11,0.00
2007,09,30,05,12,0.00
2007,09,30,05,13,0.00
2007,09,30,05,14,0.00
2007,09,30,05,15,0.00
2007,09,30,05,16,0.00
2007,09,30,05,17,0.00
2007,09,30,05,18,0.00
2007,09,30,05,19,0.00
2007,09,30,05,20,0.00
2007,09,30,05,21,0.00
2007,09,30,05,22,0.00
2007,09,30,05,23,0.00
2007,09,30,05,24,0.00
2007,09,30,05,25,0.00
2007,09,30,05,26,0.00
2007,09,30,05,27,0.00
2007,09,30,05,28,0.00
2007,09,30,05,29,0.00
2007,09,30,05,30,0.00
2007,09,30,05,31,0.00
2007,09,30,05,32,0.00
2007,09,30,05,33,0.00
2007,09,30,05,34,0.00
2007,09,30,05,35,0.00
2007,09,30,05,36,0.00
2007,09,30,05,37,0.00
2007,09,30,05,38,0.00
2007,09,30,05,39,0.00
2007,09,30,05,40,0.00
2007,09,30,05,41,0.00
2007,09,30,05,42,0.00
2007,09,30,05,43,0.00
2007,09,30,05,44,0.00
2007,09,30,05,45,0.00
2007,09,30,05,46,0.00
2007,09,30,05,47,0.00
2007,09,30,05,48,0.00
2007,09,30,05,49,0.00
2007,09,30,05,50,0.00
2007,09,30,05,51,0.00
2007,09,30,05,52,0.00
2007,09,30,05,53,0.00
2007,09,30,05,54,0.00
2007,09,30,05,55,0.00
2007,09,30,05,56,0.00
2007,09,30,05,57,0.00
2007,09,30,05,58,0.00
2007,09,30,05,59,0.00
2007,09,30,06,00,0.00
2007,09,30,06,01,0.00
2007,09,30,06,02,0.00
2007,09,30,06,03,0.00
2007,09,30,06,04,0.00
2007,09,30,06,05,0.00
2007,09,30,06,06,0.00
2007,09,30,06,07,0.00
2007,09,30,06,08,0.00
2007,09,30,06,09,0.00
2007,09,30,06,10,0.00
2007,09,30,06,11,0.00
2007,09,30,06,12,0.00
2007,09,30,06,13,0.00
2007,09,30,06,14,0.00
2007,09,30,06,15,0.00
2007,09,30,06,16,0.00
2007,09,30,06,17,0.00
2007,09,30,06,18,0.00
2007,09,30,06,19,0.00
2007,09,30,06,20,0.00
2007,09,30,06,21,0.00
2007,09,30,06,22,0.00
2007,09,30,06,23,0.00
2007,09,30,06,24,0.00
2007,09,30,06,25,0.00
2007,09,30,06,26,0.00
2007,09,30,06,27,0.00
2007,09,30,06,28,0.00
2007,09,30,06,29,0.00
2007,09,30,06,30,0.00
2007,09,30,06,31,0.00
2007,09,30,06,32,0.00
2007,09,30,06,33,0.00
2007,09,30,06,34,0.00
2007,09,30,06,35,0.00
2007,09,30,06,36,0.00
2007,09,30,06,37,0.00
2007,09,30,06,38,0.00
2007,09,30,06,39,0.00
2007,09,30,06,40,0.00
2007,09,30,06,41,0.00
2007,09,30,06,42,0.00
2007,09,30,06,43,0.00
2007,09,30,06,44,0.00
2007,09,30,06,45,0.00
2007,09,30,06,46,0.00
2007,09,30,06,47,0.00
2007,09,30,06,48,0.00
2007,09,30,06,49,0.00
2007,09,30,06,50,0.00
2007,09,30,06,51,0.00
2007,09,30,06,52,0.00
2007,09,30,06,53,0.00
2007,09,30,06,54,0.00
2007,09,30,06,55,0.00
2007,09,30,06,56,0.00
2007,09,30,06,57,0.00
2007,09,30,06,58,0.00
2007,09,30,06,59,0.00
2007,09,30,07,00,0.00
2007,09,30,07,01,0.00
2007,09,30,07,02,0.00
2007,09,30,07,03,0.00
2007,09,30,07,04,0.00
2007,09,30,07,05,0.00
2007,09,30,07,06,0.00
2007,09,30,07,07,0.00
2007,09,30,07,08,0.00
2007,09,30,07,09,0.00
2007,09,30,07,10,0.00
2007,09,30,07,11,0.00
2007,09,30,07,12,0.00
2007,09,30,07,13,0.00
2007,09,30,07,14,0.00
2007,09,30,07,15,0.00
2007,09,30,07,16,0.00
2007,09,30,07,17,0.00
2007,09,30,07,18,0.00
2007,09,30,07,19,0.00
2007,09,30,07,20,0.00
2007,09,30,07,21,0.00
2007,09,30,07,22,0.00
2007,09,30,07,23,0.00
2007,09,30,07,24,0.00
2007,09,30,07,25,0.00
2007,09,30,07,26,0.00
2007,09,30,07,27,0.00
2007,09,30,07,28,0.00
2007,09,30,07,29,0.00
2007,09,30,07,30,0.00
2007,09,30,07,31,0.00
2007,09,30,07,32,0.00
2007,09,30,07,33,0.00
2007,09,30,07,34,0.00
2007,09,30,07,35,0.00
2007,09,30,07,36,0.00
2007,09,30,07,37,1.20
2007,09,30,07,38,5.00
2007,09,30,07,39,5.00
2007,09,30,07,40,2.20
2007,09,30,07,41,0.00
2007,09,30,07,42,0.00
2007,09,30,07,43,0.00
2007,09,30,07,44,0.60
2007,09,30,07,45,5.00
2007,09,30,07,46,5.00
2007,09,30,07,47,5.00
2007,09,30,07,48,5.00
2007,09,30,07,49,6.20
2007,09,30,07,50,7.00
2007,09,30,07,51,7.00
2007,09,30,07,52,9.00
2007,09,30,07,53,9.00
2007,09,30,07,54,9.00
2007,09,30,07,55,9.00
2007,09,30,07,56,10.10
2007,09,30,07,57,11.00
2007,09,30,07,58,11.00
2007,09,30,07,59,11.00
2007,09,30,08,00,11.00
2007,09,30,08,01,11.00
2007,09,30,08,02,11.00
2007,09,30,08,03,11.00
2007,09,30,08,04,11.00
2007,09,30,08,05,11.60
2007,09,30,08,06,12.00
2007,09,30,08,07,12.00
2007,09,30,08,08,12.00
2007,09,30,08,09,12.00
2007,09,30,08,10,14.20
2007,09,30,08,11,16.00
2007,09,30,08,12,15.30
2007,09,30,08,13,14.00
2007,09,30,08,14,15.10
2007,09,30,08,15,16.00
2007,09,30,08,16,17.60
2007,09,30,08,17,18.00
2007,09,30,08,18,19.00
2007,09,30,08,19,19.00
2007,09,30,08,20,19.00
2007,09,30,08,21,19.00
2007,09,30,08,22,19.00
2007,09,30,08,23,19.00
2007,09,30,08,24,19.00
2007,09,30,08,25,19.00
2007,09,30,08,26,19.00
2007,09,30,08,27,19.00
2007,09,30,08,28,19.00
2007,09,30,08,29,19.00
2007,09,30,08,30,19.00
2007,09,30,08,31,19.00
2007,09,30,08,32,18.30
2007,09,30,08,33,18.70
2007,09,30,08,34,19.00
2007,09,30,08,35,19.00
2007,09,30,08,36,19.00
2007,09,30,08,37,19.00
2007,09,30,08,38,19.70
2007,09,30,08,39,21.00
2007,09,30,08,40,21.00
2007,09,30,08,41,21.00
2007,09,30,08,42,21.00
2007,09,30,08,43,21.00
2007,09,30,08,44,21.20
2007,09,30,08,45,23.00
2007,09,30,08,46,23.00
2007,09,30,08,47,23.00
2007,09,30,08,48,24.10
2007,09,30,08,49,25.00
2007,09,30,08,50,25.70
2007,09,30,08,51,26.00
2007,09,30,08,52,28.00
2007,09,30,08,53,28.20
2007,09,30,08,54,30.60
2007,09,30,08,55,32.00
2007,09,30,08,56,32.50
2007,09,30,08,57,33.00
2007,09,30,08,58,33.00
2007,09,30,08,59,33.00
2007,09,30,09,00,33.00
2007,09,30,09,01,33.00
2007,09,30,09,02,33.00
2007,09,30,09,03,33.60
2007,09,30,09,04,35.00
2007,09,30,09,05,36.10
2007,09,30,09,06,35.70
2007,09,30,09,07,35.00
2007,09,30,09,08,35.00
2007,09,30,09,09,35.00
2007,09,30,09,10,35.20
2007,09,30,09,11,37.00
2007,09,30,09,12,37.00
2007,09,30,09,13,36.10
2007,09,30,09,14,35.00
2007,09,30,09,15,35.00
2007,09,30,09,16,35.00
2007,09,30,09,17,35.00
2007,09,30,09,18,37.00
2007,09,30,09,19,39.10
2007,09,30,09,20,40.00
2007,09,30,09,21,40.00
2007,09,30,09,22,39.50
2007,09,30,09,23,39.00
2007,09,30,09,24,39.00
2007,09,30,09,25,39.00
2007,09,30,09,26,39.00
2007,09,30,09,27,39.00
2007,09,30,09,28,39.00
2007,09,30,09,29,39.00
2007,09,30,09,30,39.00
2007,09,30,09,31,39.00
2007,09,30,09,32,37.80
2007,09,30,09,33,37.00
2007,09,30,09,34,37.00
2007,09,30,09,35,37.00
2007,09,30,09,36,39.50
2007,09,30,09,37,42.90
2007,09,30,09,38,46.30
2007,09,30,09,39,48.90
2007,09,30,09,40,52.00
2007,09,30,09,41,53.00
2007,09,30,09,42,53.00
2007,09,30,09,43,53.00
2007,09,30,09,44,53.00
2007,09,30,09,45,54.00
2007,09,30,09,46,53.70
2007,09,30,09,47,53.00
2007,09,30,09,48,53.50
2007,09,30,09,49,55.20
2007,09,30,09,50,57.30
2007,09,30,09,51,58.00
2007,09,30,09,52,60.00
2007,09,30,09,53,59.90
2007,09,30,09,54,58.00
2007,09,30,09,55,58.00
2007,09,30,09,56,58.90
2007,09,30,09,57,61.00
2007,09,30,09,58,62.70
2007,09,30,09,59,63.00
2007,09,30,10,00,69.60
2007,09,30,10,01,70.00
2007,09,30,10,02,74.30
2007,09,30,10,03,76.80
2007,09,30,10,04,80.60
2007,09,30,10,05,83.50
2007,09,30,10,06,86.40
2007,09,30,10,07,88.00
2007,09,30,10,08,89.80
2007,09,30,10,09,90.00
2007,09,30,10,10,91.00
2007,09,30,10,11,91.00
2007,09,30,10,12,90.70
2007,09,30,10,13,90.40
2007,09,30,10,14,92.10
2007,09,30,10,15,94.20
2007,09,30,10,16,95.00
2007,09,30,10,17,93.20
2007,09,30,10,18,88.50
2007,09,30,10,19,83.90
2007,09,30,10,20,82.50
2007,09,30,10,21,80.30
2007,09,30,10,22,78.20
2007,09,30,10,23,77.00
2007,09,30,10,24,77.00
2007,09,30,10,25,78.50
2007,09,30,10,26,82.80
2007,09,30,10,27,84.00
2007,09,30,10,28,83.90
2007,09,30,10,29,82.40
2007,09,30,10,30,80.20
2007,09,30,10,31,77.90
2007,09,30,10,32,76.40
2007,09,30,10,33,72.90
2007,09,30,10,34,70.50
2007,09,30,10,35,67.40
2007,09,30,10,36,61.50
2007,09,30,10,37,57.50
2007,09,30,10,38,55.40
2007,09,30,10,39,54.00
2007,09,30,10,40,55.20
2007,09,30,10,41,56.00
2007,09,30,10,42,56.00
2007,09,30,10,43,54.10
2007,09,30,10,44,54.00
2007,09,30,10,45,54.50
2007,09,30,10,46,58.00
2007,09,30,10,47,58.60
2007,09,30,10,48,60.00
2007,09,30,10,49,61.30
2007,09,30,10,50,64.30
2007,09,30,10,51,68.50
2007,09,30,10,52,69.00
2007,09,30,10,53,68.90
2007,09,30,10,54,67.00
2007,09,30,10,55,67.00
2007,09,30,10,56,67.80
2007,09,30,10,57,69.50
2007,09,30,10,58,70.00
2007,09,30,10,59,71.60
2007,09,30,11,00,73.90
2007,09,30,11,01,79.00
2007,09,30,11,02,84.50
2007,09,30,11,03,88.50
2007,09,30,11,04,90.40
2007,09,30,11,05,91.00
2007,09,30,11,06,93.40
2007,09,30,11,07,96.90
2007,09,30,11,08,102.90
2007,09,30,11,09,105.00
2007,09,30,11,10,104.90
2007,09,30,11,11,103.70
2007,09,30,11,12,101.10
2007,09,30,11,13,96.20
2007,09,30,11,14,89.30
2007,09,30,11,15,82.80
2007,09,30,11,16,77.90
2007,09,30,11,17,76.20
2007,09,30,11,18,79.00
2007,09,30,11,19,81.00
2007,09,30,11,20,80.60
2007,09,30,11,21,78.30
2007,09,30,11,22,77.00
2007,09,30,11,23,78.20
2007,09,30,11,24,80.40
2007,09,30,11,25,82.60
2007,09,30,11,26,81.10
2007,09,30,11,27,81.00
2007,09,30,11,28,78.60
2007,09,30,11,29,76.80
2007,09,30,11,30,76.00
2007,09,30,11,31,76.00
2007,09,30,11,32,76.00
2007,09,30,11,33,76.80
2007,09,30,11,34,78.80
2007,09,30,11,35,80.70
2007,09,30,11,36,81.10
2007,09,30,11,37,83.20
2007,09,30,11,38,85.80
2007,09,30,11,39,92.90
2007,09,30,11,40,100.60
2007,09,30,11,41,108.30
2007,09,30,11,42,113.50
2007,09,30,11,43,115.90
2007,09,30,11,44,116.00
2007,09,30,11,45,116.20
2007,09,30,11,46,118.00
2007,09,30,11,47,118.70
2007,09,30,11,48,120.00
2007,09,30,11,49,118.80
2007,09,30,11,50,118.00
2007,09,30,11,51,116.40
2007,09,30,11,52,114.40
2007,09,30,11,53,114.00
2007,09,30,11,54,114.20
2007,09,30,11,55,117.00
2007,09,30,11,56,121.20
2007,09,30,11,57,125.10
2007,09,30,11,58,128.60
2007,09,30,11,59,133.10
2007,09,30,12,00,139.20
2007,09,30,12,01,145.30
2007,09,30,12,02,151.00
2007,09,30,12,03,150.30
2007,09,30,12,04,147.30
2007,09,30,12,05,144.10
2007,09,30,12,06,139.10
2007,09,30,12,07,129.90
2007,09,30,12,08,116.30
2007,09,30,12,09,104.40
2007,09,30,12,10,92.10
2007,09,30,12,11,90.00
2007,09,30,12,12,81.00
2007,09,30,12,13,81.80
2007,09,30,12,14,84.60
2007,09,30,12,15,87.20
2007,09,30,12,16,86.70
2007,09,30,12,17,84.20
2007,09,30,12,18,79.00
2007,09,30,12,19,73.80
2007,09,30,12,20,70.00
2007,09,30,12,21,71.10
2007,09,30,12,22,76.40
2007,09,30,12,23,84.30
2007,09,30,12,24,95.70
2007,09,30,12,25,115.80
2007,09,30,12,26,133.20
2007,09,30,12,27,143.10
2007,09,30,12,28,147.80
2007,09,30,12,29,146.00
2007,09,30,12,30,142.10
2007,09,30,12,31,133.00
2007,09,30,12,32,127.10
2007,09,30,12,33,122.20
2007,09,30,12,34,120.10
2007,09,30,12,35,118.00
2007,09,30,12,36,114.30
2007,09,30,12,37,113.00
2007,09,30,12,38,112.40
2007,09,30,12,39,111.80
2007,09,30,12,40,113.50
2007,09,30,12,41,115.30
2007,09,30,12,42,117.50
2007,09,30,12,43,118.00
2007,09,30,12,44,120.00
2007,09,30,12,45,121.20
2007,09,30,12,46,125.50
2007,09,30,12,47,130.10
2007,09,30,12,48,136.10
2007,09,30,12,49,141.60
2007,09,30,12,50,147.50
2007,09,30,12,51,152.30
2007,09,30,12,52,155.80
2007,09,30,12,53,155.00
2007,09,30,12,54,152.20
2007,09,30,12,55,143.90
2007,09,30,12,56,135.80
2007,09,30,12,57,124.70
2007,09,30,12,58,112.90
2007,09,30,12,59,100.60
2007,09,30,13,00,91.80
2007,09,30,13,01,90.00
2007,09,30,13,02,90.00
2007,09,30,13,03,90.00
2007,09,30,13,04,88.80
2007,09,30,13,05,84.70
2007,09,30,13,06,79.50
2007,09,30,13,07,76.30
2007,09,30,13,08,74.40
2007,09,30,13,09,72.10
2007,09,30,13,10,72.00
2007,09,30,13,11,72.00
2007,09,30,13,12,72.00
2007,09,30,13,13,72.00
2007,09,30,13,14,72.90
2007,09,30,13,15,75.20
2007,09,30,13,16,76.70
2007,09,30,13,17,80.30
2007,09,30,13,18,84.00
2007,09,30,13,19,86.00
2007,09,30,13,20,86.30
2007,09,30,13,21,88.60
2007,09,30,13,22,91.80
2007,09,30,13,23,97.80
2007,09,30,13,24,100.00
2007,09,30,13,25,100.00
2007,09,30,13,26,128.20
2007,09,30,13,27,139.60
2007,09,30,13,28,147.80
2007,09,30,13,29,142.30
2007,09,30,13,30,132.20
2007,09,30,13,31,123.70
2007,09,30,13,32,120.00
2007,09,30,13,33,125.60
2007,09,30,13,34,142.80
2007,09,30,13,35,162.10
2007,09,30,13,36,181.00
2007,09,30,13,37,201.00
2007,09,30,13,38,211.80
2007,09,30,13,39,211.90
2007,09,30,13,40,202.60
2007,09,30,13,41,187.90
2007,09,30,13,42,169.50
2007,09,30,13,43,153.60
2007,09,30,13,44,137.00
2007,09,30,13,45,126.80
2007,09,30,13,46,118.70
2007,09,30,13,47,114.00
2007,09,30,13,48,114.00
2007,09,30,13,49,118.10
2007,09,30,13,50,125.90
2007,09,30,13,51,131.10
2007,09,30,13,52,134.80
2007,09,30,13,53,141.00
2007,09,30,13,54,150.50
2007,09,30,13,55,164.10
2007,09,30,13,56,173.50
2007,09,30,13,57,178.50
2007,09,30,13,58,179.00
2007,09,30,13,59,178.30
2007,09,30,14,00,178.00
2007,09,30,14,01,174.00
2007,09,30,14,02,166.40
2007,09,30,14,03,153.50
2007,09,30,14,04,137.60
2007,09,30,14,05,120.40
2007,09,30,14,06,104.10
2007,09,30,14,07,91.50
2007,09,30,14,08,82.60
2007,09,30,14,09,74.80
2007,09,30,14,10,69.00
2007,09,30,14,11,66.80
2007,09,30,14,12,65.90
2007,09,30,14,13,71.50
2007,09,30,14,14,81.60
2007,09,30,14,15,95.30
2007,09,30,14,16,106.40
2007,09,30,14,17,110.60
2007,09,30,14,18,106.20
2007,09,30,14,19,94.20
2007,09,30,14,20,83.60
2007,09,30,14,21,81.50
2007,09,30,14,22,84.10
2007,09,30,14,23,87.70
2007,09,30,14,24,93.20
2007,09,30,14,25,97.00
2007,09,30,14,26,101.50
2007,09,30,14,27,109.00
2007,09,30,14,28,118.60
2007,09,30,14,29,129.40
2007,09,30,14,30,138.40
2007,09,30,14,31,140.10
2007,09,30,14,32,136.40
2007,09,30,14,33,134.00
2007,09,30,14,34,130.10
2007,09,30,14,35,131.80
2007,09,30,14,36,141.00
2007,09,30,14,37,148.90
2007,09,30,14,38,147.50
2007,09,30,14,39,144.20
2007,09,30,14,40,139.10
2007,09,30,14,41,134.10
2007,09,30,14,42,128.40
2007,09,30,14,43,123.70
2007,09,30,14,44,118.00
2007,09,30,14,45,112.60
2007,09,30,14,46,105.40
2007,09,30,14,47,95.90
2007,09,30,14,48,89.80
2007,09,30,14,49,86.90
2007,09,30,14,50,84.10
2007,09,30,14,51,78.40
2007,09,30,14,52,76.10
2007,09,30,14,53,72.00
2007,09,30,14,54,75.90
2007,09,30,14,55,78.60
2007,09,30,14,56,84.70
2007,09,30,14,57,87.40
2007,09,30,14,58,92.20
2007,09,30,14,59,98.00
2007,09,30,15,00,104.10
2007,09,30,15,01,108.80
2007,09,30,15,02,113.20
2007,09,30,15,03,117.20
2007,09,30,15,04,126.20
2007,09,30,15,05,137.50
2007,09,30,15,06,147.10
2007,09,30,15,07,153.60
2007,09,30,15,08,153.50
2007,09,30,15,09,142.40
2007,09,30,15,10,128.00
2007,09,30,15,11,119.90
2007,09,30,15,12,119.10
2007,09,30,15,13,123.70
2007,09,30,15,14,123.10
2007,09,30,15,15,117.10
2007,09,30,15,16,109.10
2007,09,30,15,17,99.70
2007,09,30,15,18,90.80
2007,09,30,15,19,90.00
2007,09,30,15,20,83.30
2007,09,30,15,21,87.80
2007,09,30,15,22,99.20
2007,09,30,15,23,114.50
2007,09,30,15,24,132.00
2007,09,30,15,25,149.40
2007,09,30,15,26,157.10
2007,09,30,15,27,150.70
2007,09,30,15,28,141.70
2007,09,30,15,29,136.50
2007,09,30,15,30,132.70
2007,09,30,15,31,127.90
2007,09,30,15,32,121.30
2007,09,30,15,33,114.80
2007,09,30,15,34,109.10
2007,09,30,15,35,100.80
2007,09,30,15,36,95.00
2007,09,30,15,37,87.50
2007,09,30,15,38,83.30
2007,09,30,15,39,80.30
2007,09,30,15,40,79.00
2007,09,30,15,41,79.00
2007,09,30,15,42,81.80
2007,09,30,15,43,85.10
2007,09,30,15,44,87.90
2007,09,30,15,45,93.30
2007,09,30,15,46,99.10
2007,09,30,15,47,104.70
2007,09,30,15,48,107.00
2007,09,30,15,49,105.50
2007,09,30,15,50,101.40
2007,09,30,15,51,100.00
2007,09,30,15,52,100.00
2007,09,30,15,53,105.00
2007,09,30,15,54,106.90
2007,09,30,15,55,105.00
2007,09,30,15,56,105.60
2007,09,30,15,57,109.10
2007,09,30,15,58,118.90
2007,09,30,15,59,123.00
2007,09,30,16,00,142.90
2007,09,30,16,01,159.40
2007,09,30,16,02,167.00
2007,09,30,16,03,170.50
2007,09,30,16,04,164.90
2007,09,30,16,05,153.80
2007,09,30,16,06,146.00
2007,09,30,16,07,130.70
2007,09,30,16,08,115.80
2007,09,30,16,09,108.10
2007,09,30,16,10,102.00
2007,09,30,16,11,96.80
2007,09,30,16,12,92.60
2007,09,30,16,13,90.70
2007,09,30,16,14,90.00
2007,09,30,16,15,90.00
2007,09,30,16,16,88.70
2007,09,30,16,17,86.50
2007,09,30,16,18,84.50
2007,09,30,16,19,79.80
2007,09,30,16,20,75.80
2007,09,30,16,21,74.50
2007,09,30,16,22,76.40
2007,09,30,16,23,78.60
2007,09,30,16,24,81.00
2007,09,30,16,25,82.20
2007,09,30,16,26,88.80
2007,09,30,16,27,106.00
2007,09,30,16,28,139.00
2007,09,30,16,29,161.60
2007,09,30,16,30,180.10
2007,09,30,16,31,194.90
2007,09,30,16,32,204.10
2007,09,30,16,33,204.70
2007,09,30,16,34,202.50
2007,09,30,16,35,200.20
2007,09,30,16,36,199.00
2007,09,30,16,37,192.50
2007,09,30,16,38,182.70
2007,09,30,16,39,166.40
2007,09,30,16,40,151.30
2007,09,30,16,41,144.80
2007,09,30,16,42,131.70
2007,09,30,16,43,108.50
2007,09,30,16,44,94.40
2007,09,30,16,45,84.90
2007,09,30,16,46,85.60
2007,09,30,16,47,95.80
2007,09,30,16,48,105.50
2007,09,30,16,49,110.90
2007,09,30,16,50,111.80
2007,09,30,16,51,108.20
2007,09,30,16,52,107.00
2007,09,30,16,53,99.80
2007,09,30,16,54,90.60
2007,09,30,16,55,82.80
2007,09,30,16,56,74.90
2007,09,30,16,57,67.10
2007,09,30,16,58,60.40
2007,09,30,16,59,55.80
2007,09,30,17,00,53.20
2007,09,30,17,01,51.20
2007,09,30,17,02,49.30
2007,09,30,17,03,48.90
2007,09,30,17,04,46.80
2007,09,30,17,05,45.30
2007,09,30,17,06,43.10
2007,09,30,17,07,42.00
2007,09,30,17,08,42.00
2007,09,30,17,09,42.00
2007,09,30,17,10,45.80
2007,09,30,17,11,51.30
2007,09,30,17,12,56.40
2007,09,30,17,13,59.80
2007,09,30,17,14,68.20
2007,09,30,17,15,79.30
2007,09,30,17,16,84.00
2007,09,30,17,17,97.80
2007,09,30,17,18,109.90
2007,09,30,17,19,118.70
2007,09,30,17,20,119.30
2007,09,30,17,21,112.20
2007,09,30,17,22,102.20
2007,09,30,17,23,97.00
2007,09,30,17,24,131.40
2007,09,30,17,25,109.80
2007,09,30,17,26,83.40
2007,09,30,17,27,81.00
2007,09,30,17,28,84.00
2007,09,30,17,29,92.10
2007,09,30,17,30,101.90